Location: Drignac
(45.1667°N, 2.0333°E)
Time: 01:46:01
(UTC+00:00)

Cosmos 1110 Rocket - Pass Details

Date: 29 March 2020
Orbit: 753 x 780 km, 74.0° (Epoch: 04 June)

Event Time Altitude Azimuth Distance (km) Brightness Sun altitude
Rises 18:39:42 0° 341° (NNW) 3,255 7.7 -4.9°
Reaches altitude 10° 18:42:09 10° 346° (NNW) 2,319 6.8 -5.3°
Maximum altitude 18:47:19 56° 65° (ENE) 905 4.2 -6.2°
Drops below altitude 10° 18:52:25 10° 144° (SE) 2,286 6.0 -7.1°
Sets 18:54:49 0° 148° (SSE) 3,204 6.8 -7.5°
